IRIDIUM 911 [-]

Last updated on Wed Jun 28 2023 00:03:01 GMT+0000 (Coordinated Universal Time)

1 24842U 97030G 23178.45829797 .00000785 00000+0 21517-3 0 9999 2 24842 86.4477 147.2755 0013801 347.5799 12.5061 14.45894769370862
UTC large
Height (km)
Speed (km/s)
/
Latitude / Longitude
Inclination (degrees)
Orbital Period (minutes)
Azimuth
Elevation
Range (km)
Doppler Factor

Next 0 passes for location: London (51.5072 / 0.1276)

Sorry there are no passes over London.